Time,TemperatureF,DewpointF,PressureIn,WindDirection,WindDirectionDegrees,WindSpeedMPH,WindSpeedGustMPH,Humidity,HourlyPrecipIn,Conditions,Clouds,dailyrainin,SoftwareType,DateUTC
2014-02-10 00:01:00,52.0,33.0,30.07,NNW,342,1.0,4.0,49,0.00,,,0.00,weatherlink.com 1.10,2014-02-10 07:01:00,
2014-02-10 00:16:00,52.9,33.0,30.07,NNW,330,0.0,1.0,48,0.00,,,0.00,weatherlink.com 1.10,2014-02-10 07:16:00,
2014-02-10 00:31:00,52.6,33.0,30.07,NNE,13,2.0,2.0,48,0.00,,,0.00,weatherlink.com 1.10,2014-02-10 07:31:00,
2014-02-10 00:46:00,51.5,33.0,30.07,North,356,1.0,2.0,49,0.00,,,0.00,weatherlink.com 1.10,2014-02-10 07:46:00,
2014-02-10 01:01:00,49.5,33.0,30.07,North,11,5.0,6.0,53,0.00,,,0.00,weatherlink.com 1.10,2014-02-10 08:01:00,
2014-02-10 01:16:00,49.8,33.0,30.08,NNW,345,4.0,6.0,53,0.00,,,0.00,weatherlink.com 1.10,2014-02-10 08:16:00,
2014-02-10 01:31:00,49.7,33.0,30.08,NNW,342,6.0,6.0,53,0.00,,,0.00,weatherlink.com 1.10,2014-02-10 08:31:00,
2014-02-10 01:46:00,50.3,33.0,30.07,North,4,1.0,5.0,51,0.00,,,0.00,weatherlink.com 1.10,2014-02-10 08:46:00,
2014-02-10 02:01:00,51.4,33.0,30.07,North,352,2.0,4.0,49,0.00,,,0.00,weatherlink.com 1.10,2014-02-10 09:01:00,
2014-02-10 02:16:00,51.0,33.0,30.06,WNW,302,2.0,5.0,50,0.00,,,0.00,weatherlink.com 1.10,2014-02-10 09:16:00,
2014-02-10 02:31:00,51.9,33.0,30.06,NW,304,2.0,4.0,49,0.00,,,0.00,weatherlink.com 1.10,2014-02-10 09:31:00,
2014-02-10 02:46:00,52.4,32.0,30.06,NNW,342,3.0,4.0,47,0.00,,,0.00,weatherlink.com 1.10,2014-02-10 09:46:00,
2014-02-10 03:01:00,52.0,33.0,30.06,NNW,345,2.0,4.0,48,0.00,,,0.00,weatherlink.com 1.10,2014-02-10 10:01:00,
2014-02-10 03:17:00,50.6,32.0,30.05,North,357,4.0,5.0,49,0.00,,,0.00,weatherlink.com 1.10,2014-02-10 10:17:00,
2014-02-10 03:32:00,50.9,32.0,30.05,NW,319,2.0,5.0,48,0.00,,,0.00,weatherlink.com 1.10,2014-02-10 10:32:00,
2014-02-10 03:47:00,49.3,31.0,30.04,NNW,345,1.0,4.0,50,0.00,,,0.00,weatherlink.com 1.10,2014-02-10 10:47:00,
2014-02-10 04:02:00,48.3,31.0,30.04,NNW,331,2.0,4.0,51,0.00,,,0.00,weatherlink.com 1.10,2014-02-10 11:02:00,
2014-02-10 04:17:00,48.5,30.0,30.03,WNW,301,2.0,4.0,50,0.00,,,0.00,weatherlink.com 1.10,2014-02-10 11:17:00,
2014-02-10 04:32:00,49.5,30.0,30.03,NNW,345,2.0,3.0,47,0.00,,,0.00,weatherlink.com 1.10,2014-02-10 11:32:00,
2014-02-10 04:47:00,48.0,29.0,30.04,NNW,328,3.0,3.0,49,0.00,,,0.00,weatherlink.com 1.10,2014-02-10 11:47:00,
2014-02-10 05:02:00,48.7,30.0,30.05,NNW,335,3.0,3.0,48,0.00,,,0.00,weatherlink.com 1.10,2014-02-10 12:02:00,
2014-02-10 05:17:00,48.2,29.0,30.05,NNW,337,3.0,4.0,48,0.00,,,0.00,weatherlink.com 1.10,2014-02-10 12:17:00,
2014-02-10 05:32:00,46.2,29.0,30.05,NNW,336,3.0,5.0,51,0.00,,,0.00,weatherlink.com 1.10,2014-02-10 12:32:00,
2014-02-10 05:47:00,46.4,28.0,30.05,NNE,12,2.0,5.0,50,0.00,,,0.00,weatherlink.com 1.10,2014-02-10 12:47:00,
2014-02-10 06:02:00,46.7,29.0,30.05,NNW,331,3.0,6.0,50,0.00,,,0.00,weatherlink.com 1.10,2014-02-10 13:02:00,
2014-02-10 06:17:00,47.7,28.0,30.05,NNE,16,2.0,5.0,47,0.00,,,0.00,weatherlink.com 1.10,2014-02-10 13:17:00,
2014-02-10 06:33:00,47.3,28.0,30.04,North,352,3.0,5.0,48,0.00,,,0.00,weatherlink.com 1.10,2014-02-10 13:33:00,
2014-02-10 06:47:00,47.4,28.0,30.05,NNW,338,4.0,6.0,48,0.00,,,0.00,weatherlink.com 1.10,2014-02-10 13:47:00,
2014-02-10 07:02:00,47.4,28.0,30.05,NNW,330,5.0,6.0,47,0.00,,,0.00,weatherlink.com 1.10,2014-02-10 14:02:00,
2014-02-10 07:17:00,47.5,28.0,30.05,NNW,338,4.0,5.0,47,0.00,,,0.00,weatherlink.com 1.10,2014-02-10 14:17:00,
2014-02-10 07:32:00,46.2,28.0,30.05,North,6,1.0,4.0,50,0.00,,,0.00,weatherlink.com 1.10,2014-02-10 14:32:00,
2014-02-10 07:47:00,45.9,28.0,30.05,NNW,345,2.0,4.0,50,0.00,,,0.00,weatherlink.com 1.10,2014-02-10 14:47:00,
2014-02-10 08:02:00,47.3,29.0,30.06,NNW,331,2.0,6.0,49,0.00,,,0.00,weatherlink.com 1.10,2014-02-10 15:02:00,
2014-02-10 08:17:00,50.8,29.0,30.06,North,356,4.0,6.0,44,0.00,,,0.00,weatherlink.com 1.10,2014-02-10 15:17:00,
2014-02-10 08:32:00,54.0,31.0,30.06,NNE,32,3.0,5.0,42,0.00,,,0.00,weatherlink.com 1.10,2014-02-10 15:32:00,
2014-02-10 08:47:00,56.7,32.0,30.07,NNE,16,1.0,4.0,39,0.00,,,0.00,weatherlink.com 1.10,2014-02-10 15:47:00,
2014-02-10 09:02:00,59.7,32.0,30.06,East,84,0.0,3.0,35,0.00,,,0.00,weatherlink.com 1.10,2014-02-10 16:02:00,
2014-02-10 09:17:00,62.0,31.0,30.06,NE,49,0.0,2.0,31,0.00,,,0.00,weatherlink.com 1.10,2014-02-10 16:17:00,
2014-02-10 09:32:00,67.1,29.0,30.05,SSE,156,2.0,2.0,24,0.00,,,0.00,weatherlink.com 1.10,2014-02-10 16:32:00,
2014-02-10 09:47:00,67.2,30.0,30.05,WSW,243,2.0,3.0,25,0.00,,,0.00,weatherlink.com 1.10,2014-02-10 16:47:00,
2014-02-10 10:02:00,67.0,31.0,30.06,West,264,2.0,5.0,26,0.00,,,0.00,weatherlink.com 1.10,2014-02-10 17:02:00,
2014-02-10 10:17:00,67.4,31.0,30.06,SW,236,3.0,7.0,26,0.00,,,0.00,weatherlink.com 1.10,2014-02-10 17:17:00,
2014-02-10 10:32:00,68.8,32.0,30.05,SSW,198,4.0,8.0,26,0.00,,,0.00,weatherlink.com 1.10,2014-02-10 17:32:00,
2014-02-10 10:48:00,70.1,27.0,30.05,SSE,166,5.0,9.0,20,0.00,,,0.00,weatherlink.com 1.10,2014-02-10 17:48:00,
2014-02-10 11:03:00,71.0,25.0,30.05,SSW,209,2.0,10.0,18,0.00,,,0.00,weatherlink.com 1.10,2014-02-10 18:03:00,
2014-02-10 11:18:00,71.8,26.0,30.05,SSW,196,5.0,8.0,18,0.00,,,0.00,weatherlink.com 1.10,2014-02-10 18:18:00,
2014-02-10 11:33:00,72.4,28.0,30.04,West,275,2.0,7.0,19,0.00,,,0.00,weatherlink.com 1.10,2014-02-10 18:33:00,
2014-02-10 11:48:00,72.2,28.0,30.03,SE,143,5.0,9.0,19,0.00,,,0.00,weatherlink.com 1.10,2014-02-10 18:48:00,
2014-02-10 12:03:00,72.7,28.0,30.03,South,177,1.0,7.0,19,0.00,,,0.00,weatherlink.com 1.10,2014-02-10 19:03:00,
2014-02-10 12:18:00,72.8,29.0,30.02,SSE,155,4.0,9.0,20,0.00,,,0.00,weatherlink.com 1.10,2014-02-10 19:18:00,
2014-02-10 12:33:00,73.1,31.0,30.01,NNW,340,1.0,10.0,21,0.00,,,0.00,weatherlink.com 1.10,2014-02-10 19:33:00,
2014-02-10 12:48:00,72.9,31.0,30.00,West,264,1.0,8.0,21,0.00,,,0.00,weatherlink.com 1.10,2014-02-10 19:48:00,
2014-02-10 13:03:00,73.7,31.0,29.99,WSW,255,3.0,9.0,21,0.00,,,0.00,weatherlink.com 1.10,2014-02-10 20:03:00,
2014-02-10 13:18:00,74.1,32.0,29.97,WSW,252,3.0,6.0,21,0.00,,,0.00,weatherlink.com 1.10,2014-02-10 20:18:00,
2014-02-10 13:33:00,73.3,32.0,29.97,SW,221,4.0,12.0,22,0.00,,,0.00,weatherlink.com 1.10,2014-02-10 20:33:00,
2014-02-10 13:48:00,73.7,31.0,29.96,West,262,3.0,9.0,21,0.00,,,0.00,weatherlink.com 1.10,2014-02-10 20:48:00,
2014-02-10 14:03:00,74.1,33.0,29.95,West,259,7.0,11.0,22,0.00,,,0.00,weatherlink.com 1.10,2014-02-10 21:03:00,
2014-02-10 14:18:00,73.1,32.0,29.95,SW,221,1.0,14.0,22,0.00,,,0.00,weatherlink.com 1.10,2014-02-10 21:18:00,
2014-02-10 14:33:00,74.0,34.0,29.94,West,281,7.0,13.0,23,0.00,,,0.00,weatherlink.com 1.10,2014-02-10 21:33:00,
2014-02-10 14:48:00,73.1,33.0,29.93,West,260,10.0,11.0,23,0.00,,,0.00,weatherlink.com 1.10,2014-02-10 21:48:00,
2014-02-10 15:03:00,73.1,33.0,29.92,WSW,243,3.0,6.0,23,0.00,,,0.00,weatherlink.com 1.10,2014-02-10 22:03:00,
2014-02-10 15:18:00,73.0,34.0,29.92,SW,231,2.0,9.0,24,0.00,,,0.00,weatherlink.com 1.10,2014-02-10 22:18:00,
2014-02-10 15:33:00,72.7,34.0,29.91,NNW,334,3.0,11.0,24,0.00,,,0.00,weatherlink.com 1.10,2014-02-10 22:33:00,
2014-02-10 15:48:00,72.5,33.0,29.92,NNW,338,3.0,10.0,23,0.00,,,0.00,weatherlink.com 1.10,2014-02-10 22:48:00,
2014-02-10 16:03:00,72.4,32.0,29.91,NW,317,2.0,13.0,23,0.00,,,0.00,weatherlink.com 1.10,2014-02-10 23:03:00,
2014-02-10 16:18:00,72.6,34.0,29.91,WNW,284,5.0,6.0,24,0.00,,,0.00,weatherlink.com 1.10,2014-02-10 23:18:00,
2014-02-10 16:33:00,71.5,33.0,29.91,WNW,303,3.0,11.0,24,0.00,,,0.00,weatherlink.com 1.10,2014-02-10 23:33:00,
2014-02-10 16:48:00,71.2,33.0,29.90,NW,304,4.0,9.0,24,0.00,,,0.00,weatherlink.com 1.10,2014-02-10 23:48:00,
2014-02-10 17:03:00,70.9,33.0,29.90,West,276,2.0,8.0,25,0.00,,,0.00,weatherlink.com 1.10,2014-02-11 00:03:00,
2014-02-10 17:18:00,70.1,32.0,29.90,NW,308,7.0,12.0,24,0.00,,,0.00,weatherlink.com 1.10,2014-02-11 00:18:00,
2014-02-10 17:33:00,69.3,32.0,29.91,WNW,300,3.0,10.0,25,0.00,,,0.00,weatherlink.com 1.10,2014-02-11 00:33:00,
2014-02-10 17:49:00,68.1,32.0,29.91,WNW,288,4.0,8.0,26,0.00,,,0.00,weatherlink.com 1.10,2014-02-11 00:49:00,
2014-02-10 18:03:00,66.7,32.0,29.91,NNW,328,7.0,9.0,27,0.00,,,0.00,weatherlink.com 1.10,2014-02-11 01:03:00,
2014-02-10 18:18:00,65.6,31.0,29.91,NW,310,4.0,9.0,28,0.00,,,0.00,weatherlink.com 1.10,2014-02-11 01:18:00,
2014-02-10 18:34:00,64.6,31.0,29.91,WNW,302,2.0,8.0,29,0.00,,,0.00,weatherlink.com 1.10,2014-02-11 01:34:00,
2014-02-10 18:49:00,63.5,31.0,29.92,NW,309,7.0,10.0,30,0.00,,,0.00,weatherlink.com 1.10,2014-02-11 01:49:00,
2014-02-10 19:04:00,63.3,32.0,29.93,NNW,345,4.0,10.0,31,0.00,,,0.00,weatherlink.com 1.10,2014-02-11 02:04:00,
2014-02-10 19:19:00,61.5,32.0,29.93,NNE,28,3.0,6.0,33,0.00,,,0.00,weatherlink.com 1.10,2014-02-11 02:19:00,
2014-02-10 19:34:00,61.1,32.0,29.93,North,9,3.0,6.0,33,0.00,,,0.00,weatherlink.com 1.10,2014-02-11 02:34:00,
2014-02-10 19:49:00,59.9,31.0,29.93,NW,319,0.0,2.0,34,0.00,,,0.00,weatherlink.com 1.10,2014-02-11 02:49:00,
2014-02-10 20:04:00,58.6,32.0,29.93,NNW,327,2.0,3.0,36,0.00,,,0.00,weatherlink.com 1.10,2014-02-11 03:04:00,
2014-02-10 20:19:00,58.4,31.0,29.94,NW,321,2.0,5.0,36,0.00,,,0.00,weatherlink.com 1.10,2014-02-11 03:19:00,
2014-02-10 20:34:00,58.9,32.0,29.95,NNW,345,3.0,4.0,36,0.00,,,0.00,weatherlink.com 1.10,2014-02-11 03:34:00,
2014-02-10 20:49:00,58.5,31.0,29.95,NNE,31,1.0,4.0,36,0.00,,,0.00,weatherlink.com 1.10,2014-02-11 03:49:00,
2014-02-10 21:04:00,57.0,31.0,29.96,NW,312,4.0,4.0,38,0.00,,,0.00,weatherlink.com 1.10,2014-02-11 04:04:00,
2014-02-10 21:19:00,56.8,32.0,29.95,North,353,2.0,4.0,39,0.00,,,0.00,weatherlink.com 1.10,2014-02-11 04:19:00,
2014-02-10 21:34:00,56.5,32.0,29.95,North,353,3.0,4.0,39,0.00,,,0.00,weatherlink.com 1.10,2014-02-11 04:34:00,
2014-02-10 21:49:00,56.1,32.0,29.96,NNW,331,3.0,5.0,40,0.00,,,0.00,weatherlink.com 1.10,2014-02-11 04:49:00,
2014-02-10 22:04:00,55.1,32.0,29.95,NW,317,4.0,4.0,41,0.00,,,0.00,weatherlink.com 1.10,2014-02-11 05:04:00,
2014-02-10 22:19:00,55.0,32.0,29.95,NNW,335,3.0,5.0,42,0.00,,,0.00,weatherlink.com 1.10,2014-02-11 05:19:00,
2014-02-10 22:34:00,54.9,32.0,29.96,NNW,336,2.0,4.0,42,0.00,,,0.00,weatherlink.com 1.10,2014-02-11 05:34:00,
2014-02-10 22:49:00,53.9,32.0,29.96,NNW,339,2.0,4.0,44,0.00,,,0.00,weatherlink.com 1.10,2014-02-11 05:49:00,
2014-02-10 23:04:00,52.1,32.0,29.96,NNW,345,2.0,5.0,47,0.00,,,0.00,weatherlink.com 1.10,2014-02-11 06:04:00,
2014-02-10 23:19:00,52.2,32.0,29.95,NNE,28,3.0,6.0,47,0.00,,,0.00,weatherlink.com 1.10,2014-02-11 06:19:00,
2014-02-10 23:35:00,52.0,33.0,29.96,North,360,4.0,5.0,48,0.00,,,0.00,weatherlink.com 1.10,2014-02-11 06:35:00,
2014-02-10 23:49:00,51.1,32.0,29.96,North,9,5.0,7.0,49,0.00,,,0.00,weatherlink.com 1.10,2014-02-11 06:49:00,